User: anonymous
Location: Caltech
(34.1382°N, 118.1253°W)
Time: 16:38:23
(UTC-07:00)
Language:

HO-68 - Orbit

View from above orbital plane
View from above orbital plane
View from above satellite
View from above satellite

Ground track
Ground track

The orbit data is extracted from the following two-line orbital elements,

1 36122U 09072B   14108.21702347 -.00000043  00000-0  00000+0 0  5074
2 36122 100.2567 161.9060 0007628 017.2504 342.8864 13.16314256208548
Epoch (UTC): 18 April 2014 05:12:30
Eccentricity: 0.0007628
inclination: 100.2567°
perigee height: 1193 km
apogee height: 1204 km
right ascension of ascending node: 161.9060°
argument of perigee: 17.2504°
revolutions per day: 13.16314256
mean anomaly at epoch: 342.8864°
orbit number at epoch: 20854

The dashed part of the orbit path shows where the satellite is in the earth's shadow,  

DLR